COSMOS 2522 (752)

Last updated on Sun Jan 18 2026 00:03:17 GMT+0000 (Coordinated Universal Time)

1 42939U 17055A 26017.49078681 .00000092 00000+0 00000+0 0 9993 2 42939 64.0781 197.0108 0006247 221.8526 138.1146 2.13102005 64767
UTC large
Height (km)
Speed (km/s)
/
Latitude / Longitude
Inclination (degrees)
Orbital Period (minutes)
Azimuth
Elevation
Range (km)
Doppler Factor

Next 0 passes for location: London (51.5072 / 0.1276)

Sorry there are no passes over London.